Content
SEND FEEDBACK

Daily
Averages
Monthly
Summary
United States of America

LUFKIN, TEXAS


Home > North America > United States > Texas
Elevation: 288 feet     Latitude: 31 14N     Longitude: 094 45W

WEATHER
 
SELECT A DAY
Number of Records: 212,920;   Date Range: 1/1/95 - 7/26/14
 
SHARE

PRINT THIS DATA

[ ← Previous Day ]
WEATHER ALMANAC - JANUARY 31, 2013
[ Next Day → ]
[ °C ]   °F
Weather ElementAverageHighLow
Temperature46.3 °F64.9 °F (2:53 pm)30 °F (6:53 am)
Dewpoint28.5 °F34 °F (7:53 pm)21 °F (2:53 pm)
Humidity56.7 %86 % (4:53 am)19 % (2:53 pm)
Barometer30.25 in30.30 in (9:53 am)30.19 in (4:53 am)
Wind Speed4.8 mph11.5 mph (10:53 am)
Wind Gust18.4 mph (2:53 pm)
Weather ElementAverage
Visibility10 mi
Wind DirectionSE (135 °)

Weather ElementTotal
Precipitation---
Heating Degree Days17.6 (Base 65)
Averaged from 24 records on January 31, 2013
WEATHER CONDITIONS BREAKOUT
WIND DIRECTION BREAKOUT
WEATHER BY HOUR - JANUARY 31, 2013
[ °C ]   °F
Local TimeTemperatureDewpointHumidityBarometerVisibilityWind DirectionWind SpeedGust SpeedPrecipitationEventsConditions
1:53 AM34.0 °F28.0 °F79 %30.22 in10.0 miCalmClear
2:53 AM34.0 °F27.0 °F75 %30.20 in10.0 miCalmClear
3:53 AM32.0 °F27.0 °F82 %30.20 in10.0 miCalmClear
4:53 AM30.2 °F26.6 °F86 %30.19 in10.0 miCalmClear
5:53 AM30.9 °F26.1 °F82 %30.21 in10.0 miCalmClear
6:53 AM30.0 °F26.1 °F85 %30.24 in10.0 miCalmClear
7:53 AM32.0 °F28.0 °F85 %30.26 in10.0 miCalmClear
8:32 AM37.4 °F30.2 °F75 %30.27 in10.0 miSE (140°)3.5 mphScattered Clouds
8:53 AM43.0 °F33.1 °F68 %30.28 in10.0 miSSW (210°)4.6 mphMostly Cloudy
9:02 AM44.6 °F33.8 °F66 %30.28 in10.0 miSSW (200°)4.6 mphPartly Cloudy
9:53 AM51.1 °F32.0 °F48 %30.30 in10.0 miSW (220°)8.1 mph17.3 mphClear
10:53 AM57.9 °F27.0 °F31 %30.29 in10.0 miSSW (210°)11.5 mph17.3 mphClear
11:53 AM61.0 °F24.1 °F24 %30.27 in10.0 miWSW (240°)10.4 mphClear
12:53 PM63.0 °F24.1 °F23 %30.25 in10.0 miWest (260°)10.4 mphClear
2:53 PM64.9 °F21.0 °F19 %30.22 in10.0 miSW (220°)11.5 mph18.4 mphClear
3:53 PM64.9 °F24.1 °F21 %30.19 in10.0 miSW (230°)10.4 mphClear
4:53 PM64.0 °F25.0 °F23 %30.21 in10.0 miSW (220°)8.1 mphClear
5:53 PM59.0 °F24.1 °F26 %30.21 in10.0 miSSW (200°)5.8 mphClear
6:53 PM50.0 °F30.9 °F48 %30.21 in10.0 miSSE (160°)3.5 mphClear
7:53 PM46.0 °F34.0 °F63 %30.25 in10.0 miEast (80°)3.5 mphClear
8:53 PM43.0 °F33.1 °F68 %30.28 in10.0 miSSE (160°)6.9 mphClear
9:53 PM46.0 °F32.0 °F58 %30.27 in10.0 miSSE (150°)4.6 mphClear
10:53 PM46.4 °F33.8 °F62 %30.29 in10.0 miSouth (170°)3.5 mphClear
11:53 PM46.0 °F34.0 °F63 %30.29 in10.0 miSouth (170°)3.5 mphClear
Hourly data recorded from KLFK, located miles away from Lufkin, Texas







STORIES FROM OUR PARTNERS